Regional Weather Roundup
Issued by NWS

Home | Current Version | Previous Version | Graphics & Text | Print | Product List | Glossary On
Versions: 1 2 3 4 5 6 7 8 9 10 11 12 13 14 15 16 17 18 19 20 21 22 23 24 25 26 27 28 29 30 31 32 33 34 35 36 37 38 39 40 41 42 43 44 45 46 47 48 49 50
000
ASUS45 KPSR 051900
RWRAZ

ARIZONA REGIONAL HOURLY WEATHER ROUNDUP
NATIONAL WEATHER SERVICE PHOENIX AZ
1200 PM MST THU MAR 05 2015

NOTE: FAIR INDICATES FEW OR NO CLOUDS BELOW 12,000 FEET WITH NO
SIGNIFICANT WEATHER AND/OR OBSTRUCTIONS TO VISIBILITY.

AZZ001>003-036-052000-
NORTHWEST ARIZONA

CITY           SKY/WX    TMP DP  RH WIND       PRES   REMARKS
KINGMAN        NOT AVBL
$$

AZZ004>008-015-016-018-052000-
NORTH CENTRAL ARIZONA

CITY           SKY/WX    TMP DP  RH WIND       PRES   REMARKS
GRAND CANYON   SUNNY     45   4  18 CALM      30.39F
PRESCOTT       SUNNY     51  16  24 N6        30.37F
FLAGSTAFF      NOT AVBL
PAYSON         SUNNY     54  16  22 VRB7      30.36F
PAGE           SUNNY     44  20  38 N6        30.43F
$$

AZZ009>014-017-052000-
NORTHEAST ARIZONA

CITY           SKY/WX    TMP DP  RH WIND       PRES   REMARKS
WINSLOW        NOT AVBL
SAINT JOHNS    SUNNY     48   9  20 N8        30.37F
WINDOW ROCK    SUNNY     45   8  22 CALM      30.38F
$$

AZZ023-052000-
GREATER PHOENIX AREA

CITY           SKY/WX    TMP DP  RH WIND       PRES   REMARKS
PHOENIX        NOT AVBL
DEER VALLEY    SUNNY     66   9  10 VRB7      30.28F
SCOTTSDALE     SUNNY     67  12  12 VRB6      30.30F
MESA-FALCON    SUNNY     64  16  15 N12       30.27F
MESA-GATEWAY   SUNNY     64  21  19 CALM      30.30F
$$

AZZ027-028-052000-
SOUTHWEST MARICOPA COUNTY AND PINAL COUNTY

CITY           SKY/WX    TMP DP  RH WIND       PRES   REMARKS
CASA GRANDE    SUNNY     64  25  22 NE8       30.28F
$$

AZZ503-504-507>509-052000-
SOUTHEAST ARIZONA

CITY           SKY/WX    TMP DP  RH WIND       PRES   REMARKS
TUCSON         SUNNY     66  24  20 E9        30.27F
NOGALES        SUNNY     63  25  23 SE9G17    30.23F
SAFFORD        SUNNY     57  21  24 SE16      30.34F
$$

AZZ020-021-025-026-031-052000-
SOUTHWEST ARIZONA

CITY           SKY/WX    TMP DP  RH WIND       PRES   REMARKS
YUMA           SUNNY     69  29  22 NE10      30.28F
$$

CAZ031-033-041-043-047-048-061-052000-
SOUTHERN CALIFORNIA

CITY           SKY/WX    TMP DP  RH WIND       PRES   REMARKS
DOWNTOWN L.A.  NOT AVBL
L.A. AIRPORT   MOSUNNY   69  25  19 VRB5      30.26F
SAN DIEGO      SUNNY     69  31  24 SW5       30.26F
BURBANK        SUNNY     69  21  16 W7        30.26F
ONTARIO        MOSUNNY   67  26  21 VRB6      30.27F
RIVERSIDE      SUNNY     71  16  12 VRB7G20   30.27F
PALM SPRINGS   SUNNY     72  15  11 VRB3      30.33S
EL CENTRO NAS  MOSUNNY   69  26  20 CALM      30.30F
IMPERIAL       SUNNY     69  29  22 N3        30.29F
BLYTHE         SUNNY     66  30  26 VRB6      30.32F
$$

NVZ020-UTZ003-052000-
SOUTHERN NEVADA-UTAH

CITY           SKY/WX    TMP DP  RH WIND       PRES   REMARKS
LAS VEGAS      NOT AVBL
SALT LAKE CITY MOSUNNY   41  22  46 S6        30.45S
$$

NMZ009-TXZ055-052000-
NEW MEXICO-WEST TEXAS

CITY           SKY/WX    TMP DP  RH WIND       PRES   REMARKS
ALBUQUERQUE    SUNNY     42  12  29 E5        30.40F
EL PASO        NOT AVBL
$$


........................KEY........................
SKY/WX - SKY CONDITION/WEATHER
TMP    - TEMPERATURE IN FAHRENHEIT
DP     - DEW POINT IN FAHRENHEIT
RH     - RELATIVE HUMIDITY IN PERCENT
WIND   - DIRECTION AND SPEED IN MILES PER HOUR (MPH)
VRB    - VARIABLE WIND DIRECTION
PRES   - MEAN SEA LEVEL PRESSURE IN INCHES OF MERCURY
         F - FALLING PRESSURE   R - RISING PRESSURE
         S - STEADY PRESSURE
VSB    - VISIBILITY IN MILES
HX     - HEAT INDEX IN FAHRENHEIT
WCI    - WIND CHILL INDEX IN FAHRENHEIT
TC     - TEMPERATURE IN CELSIUS WHICH IS ALSO KNOWN AS
         TEMPERATURE IN CENTIGRADE
AFB    - AIR FORCE BASE
         LUKE AFB IS LUKE AIR FORCE BASE
         DAVIS-MONTHAN IS DAVIS-MONTHAN AIR FORCE BASE
NAS    - NAVAL AIR STATION
         EL CENTRO NAS IS EL CENTRO NAVAL AIR STATION
N/A    - NOT AVAILABLE



USA.gov is the U.S. government's official web portal to all federal, state and local government web resources and services.